Terminal Aerodrome Forecast
Issued by NWS

Home | Current Version | Previous Version | Text Only | Print | Product List | Glossary On
Versions: 1 2 3 4 5 6 7 8 9 10 11 12 13 14 15
594
FTAK31 PAJN 101139
TAFAGY
TAF
PAGY 101139Z 1012/1112 03010G18KT P6SM VCSH BKN050 OVC100
     FM101500 03008KT 6SM -RASN BKN025 OVC050
     FM102100 04005KT P6SM VCSH SCT025 OVC050
     FM110500 04008KT P6SM -RA OVC040
     FM111000 20010KT P6SM -RA OVC050
      AMD LTD TO CLD VIS AND WIND=

USA.gov is the U.S. government's official web portal to all federal, state and local government web resources and services.